Overview Statistics Trail Chart Weather Telemetry Raw packets
 

This is the latest recevied weather packets stored in our database for station/object K7DC. If no packets are shown the sender has not sent any weather packets the latest 10 day(s).

<< 71 72 73 74 75 76 77 >>
Time Temp. Humidity Pressure Rain* Wind** Luminosity Snow
1788128255 37.22° C 29% 1013.2 hPa 0 mm - 580 W/m² -
1788127952 37.22° C 30% 1013.4 hPa 0 mm - 615 W/m² -
1788127647 36.67° C 29% 1013.5 hPa 0 mm - 621 W/m² -
1788127346 36.67° C 31% 1013.5 hPa 0 mm - 672 W/m² -
1788127044 37.22° C 30% 1013.8 hPa 0 mm - 727 W/m² -
1788126739 36.67° C 31% 1013.8 hPa 0 mm - 783 W/m² -
1788126435 36.11° C 31% 1014 hPa 0 mm - 564 W/m² -
1788126135 36.11° C 31% 1014 hPa 0 mm - 698 W/m² -
1788125834 36.67° C 32% 1013.9 hPa 0 mm - 205 W/m² -
1788125529 36.67° C 31% 1014.2 hPa 0 mm - 771 W/m² -
1788125225 36.67° C 32% 1013.9 hPa 0 mm - 752 W/m² -
1788124920 36.67° C 30% 1014.2 hPa 0 mm - 753 W/m² -
1788124620 36.67° C 30% 1014.2 hPa 0 mm - 612 W/m² -
1788124319 36.67° C 30% 1014.4 hPa 0 mm - 769 W/m² -
1788124015 37.78° C 29% 1014.7 hPa 0 mm - 789 W/m² -
1788123714 37.22° C 29% 1014.5 hPa 0 mm - 809 W/m² -
1788123412 37.22° C 30% 1014.5 hPa 0 mm - 882 W/m² -
1788123107 37.78° C 29% 1014.7 hPa 0 mm - 889 W/m² -
1788122807 37.22° C 30% 1014.7 hPa 0 mm - 939 W/m² -
1788122506 36.11° C 32% 1015.1 hPa 0 mm - 905 W/m² -
1788122203 36.67° C 30% 1015.1 hPa 0 mm - 528 W/m² -
1788121903 36.67° C 30% 1015 hPa 0 mm - 788 W/m² -
1788121602 36.67° C 30% 1015.1 hPa 0 mm - 944 W/m² -
1788121298 36.67° C 30% 1015.2 hPa 0 mm - 912 W/m² -
1788120997 36.67° C 30% 1015.4 hPa 0 mm - 905 W/m² -

* Rain latest hour (hover to see other rain measurements)
** Current wind speed in m/s (hover to see current wind gust speed)